FW2422 Weather Reports


Display with metric or nautical units.
time (UTC)temp
F
wind
direction
speed
MPH
gust
MPH
rain 1hr
in
rain 24hr
in
rain mn
in
humidity
%
barometer
mb
20260906190029 98 105 2.0 5.0 0.00 0.00 0.00 41 1012.1
20260906184532 99 129 4.0 9.0 0.00 0.00 0.00 42 1012.2
20260906183033 98 106 5.0 12.0 0.00 0.00 0.00 43 1012.4
20260906181532 97 134 2.0 8.0 0.00 0.00 0.00 45 1012.7
20260906180022 96 117 3.0 9.0 0.00 0.00 0.00 47 1012.9
20260906174525 95 132 3.0 7.0 0.00 0.00 0.00 48 1013.0
20260906173014 96 108 2.0 9.0 0.00 0.00 0.00 49 1013.2
20260906171510 94 174 2.0 6.0 0.00 0.00 0.00 51 1013.4
20260906170010 94 110 2.0 7.0 0.00 0.00 0.00 51 1013.7
20260906164507 94 128 1.0 7.0 0.00 0.00 0.00 53 1014.1
20260906163004 93 96 0.0 4.0 0.00 0.00 0.00 54 1014.0
20260906161502 92 99 0.0 7.0 0.00 0.00 0.00 57 1014.0
20260906160100 92 110 2.0 6.0 0.00 0.00 0.00 57 1014.2
20260906154555 91 176 2.0 6.0 0.00 0.00 0.00 61 1014.1
20260906153054 90 102 0.0 5.0 0.00 0.00 0.00 63 1013.8
20260906151553 89 94 0.0 6.0 0.00 0.00 0.00 65 1013.8
20260906150049 87 103 0.0 3.0 0.00 0.00 0.00 68 1013.7
20260906144549 87 91 0.0 4.0 0.00 0.00 0.00 68 1013.7
20260906143045 87 110 0.0 3.0 0.00 0.00 0.00 68 1013.7
20260906141543 85 221 0.0 3.0 0.00 0.00 0.00 71 1013.8
20260906140048 86 128 0.0 2.0 0.00 0.00 0.00 71 1013.8
20260906134536 84 134 0.0 1.0 0.00 0.00 0.00 75 1013.6
20260906113057 77 88 0.0 0.0 0.00 0.00 0.00 88 1012.8
20260906111549 77 89 0.0 0.0 0.00 0.00 0.00 88 1012.6
20260906110048 77 88 0.0 0.0 0.00 0.00 0.00 88 1012.5
20260906104545 78 89 0.0 0.0 0.00 0.00 0.00 87 1012.4
20260906103052 78 89 0.0 0.0 0.00 0.00 0.00 87 1012.3
20260906093024 78 165 0.0 0.0 0.00 0.00 0.00 85 1011.8
20260906091520 78 165 0.0 0.0 0.00 0.00 0.00 85 1011.9
20260906090020 78 165 0.0 0.0 0.00 0.00 0.00 85 1011.7
20260906084521 79 165 0.0 0.0 0.00 0.00 0.00 84 1011.7
20260906074558 80 149 0.0 0.0 0.00 0.00 0.00 82 1012.0
20260906073058 80 159 0.0 0.0 0.00 0.00 0.00 82 1011.9
20260906071555 80 203 0.0 2.0 0.00 0.00 0.00 82 1011.9
20260906070055 80 127 0.0 1.0 0.00 0.00 0.00 81 1011.8
20260906064555 81 154 0.0 1.0 0.00 0.00 0.00 81 1011.8
20260906063053 81 172 0.0 0.0 0.00 0.00 0.00 80 1011.9
20260906061551 81 150 0.0 0.0 0.00 0.00 0.00 78 1012.1
20260906060049 81 155 0.0 3.0 0.00 0.00 0.00 77 1012.1
20260906054547 82 210 0.0 3.0 0.00 0.00 0.00 76 1012.2
20260906053047 82 173 0.0 3.0 0.00 0.00 0.00 76 1012.1
20260906051543 82 94 0.0 2.0 0.00 0.00 0.00 75 1012.2
20260906050044 83 311 0.0 4.0 0.00 0.00 0.00 74 1011.9
20260906044543 83 203 0.0 1.0 0.00 0.00 0.00 73 1011.9
20260906043039 83 91 0.0 4.0 0.00 0.00 0.00 72 1011.8
20260906041537 84 144 0.0 3.0 0.00 0.00 0.00 71 1011.8
20260906040037 84 157 1.0 4.0 0.00 0.00 0.00 70 1012.1
20260906034537 84 131 0.0 5.0 0.00 0.00 0.00 69 1012.0
20260906033038 85 205 1.0 5.0 0.00 0.00 0.00 68 1012.0
20260906031535 85 183 0.0 3.0 0.00 0.00 0.00 68 1011.8
20260906030034 85 164 1.0 3.0 0.00 0.00 0.00 67 1011.8
20260906024533 86 84 1.0 5.0 0.00 0.00 0.00 66 1011.9
20260905224516 101 28 0.0 1.0 0.00 0.00 0.00 37 1009.7
20260905203005 100 172 2.0 6.0 0.00 0.00 0.00 36 1010.8
20260905201503 101 231 0.0 3.0 0.00 0.00 0.00 37 1011.0
20260905200104 99 47 0.0 3.0 0.00 0.00 0.00 38 1011.2
20260905194559 100 106 2.0 6.0 0.00 0.00 0.00 37 1011.4
20260905193054 98 191 0.0 2.0 0.00 0.00 0.00 42 1011.7
20260905191552 98 49 0.0 4.0 0.00 0.00 0.00 42 1012.0
20260905190059 98 111 2.0 7.0 0.00 0.00 0.00 42 1012.3